Other Public Products
Issued by NWS Grand Forks, ND

Home | Current Version | Previous Version | Text Only | Print | Product List | Glossary Off
Versions: 1 2 3 4 5 6 7 8 9 10 11 12 13 14 15 16 17 18 19 20 21 22 23 24 25 26 27 28 29 30 31 32 33 34 35 36 37 38 39 40 41 42 43 44 45 46 47 48 49 50

000
FPUS83 KFGF 291510
OPUFGF
PRAIRIE TO PINES WEATHER ROUNDUP
NATIONAL WEATHER SERVICE EASTERN NORTH DAKOTA/GRAND FORKS ND
1000 AM CDT THU JUN 29 2017

 **SATELLITE DATA USED TO AUGMENT SKY COVER AT AUTOMATED STATIONS**
 *****  WEATHER ACROSS EASTERN NORTH DAKOTA  *****

CITY           SKY/WX    TMP DP  RH WIND       PRES   REMARKS
GRAND FORKS    PTSUNNY   66  61  84 N3        29.79F
GRAND FORKS AF PTSUNNY   64  64 100 CALM      29.80S
GRAND CITY NWS NOT AVBL
BUXTON           N/A     67  64  89 NW2         N/A
DEVILS LAKE    FAIR      70  61  73 CALM      29.82R
FARGO          CLOUDY    65  60  84 N8        29.78F
WAHPETON ARPT  CLOUDY    63  55  77 NW3       29.81R
$$

 *****  WEATHER ACROSS CENTRAL AND WESTERN NORTH DAKOTA  *****

CITY           SKY/WX    TMP DP  RH WIND       PRES   REMARKS
JAMESTOWN      LGT RAIN  66  59  78 CALM      29.82R
BISMARCK       CLOUDY    63  57  81 CALM      29.84R
MINOT          FAIR      71  54  54 E3        29.81R
MINOT AFB      PTSUNNY   70  53  55 N5        29.80R
GARRISON         N/A     68  53  58 S6        29.81S
WILLISTON      FAIR      72  50  45 N8        29.83S
DICKINSON      FAIR      70  47  43 S8        29.81R
HETTINGER      CLOUDY    63  52  67 SW6       29.87R
$$

 *****  OTHER OBSERVATIONS NORTHEAST NORTH DAKOTA  *****

CITY           SKY/WX    TMP DP  RH WIND       PRES   REMARKS
WALHALLA       NOT AVBL
LANGDON        FAIR      68  64  88 NE7       29.82S
CAVALIER       CLOUDY    64 N/A N/A CALM      29.80R
GRAFTON        CLOUDY    63  63 100 W3        29.82S
CANDO          NOT AVBL
FORT TOTTEN      N/A     73  64  73 CALM      29.95S
ROLLA            N/A     72  54  53 N8        29.82S
RUGBY          NOT AVBL
 ***** THE ABOVE OBSERVATIONS ARE NON NWS ARE NOT QUALITY
        CONTROLLED AND MAY MIS-REPORT RAIN FOR SNOW...
$$

 *****  OTHER OBSERVATIONS SOUTHEAST NORTH DAKOTA *****

CITY           SKY/WX    TMP DP  RH WIND       PRES   REMARKS
COOPERSTOWN    FOG       61  61 100 CALM      29.83S VSB 3/4
VALLEY CITY    CLOUDY    61  61 100 CALM      29.83R
OAKES          NOT AVBL
GWINNER        CLOUDY    66  61  82 CALM      29.81R
SHEYENNE NWR     N/A     64  61  90 NE3       29.95S
BUFFALO          N/A     64  59  81 W3          N/A
WYNDMERE       NOT AVBL
 ***** THE ABOVE OBSERVATIONS ARE NON NWS ARE NOT QUALITY
       CONTROLLED AND MAY MIS-REPORT RAIN FOR SNOW...
$$

  *****  WEATHER ACROSS NORTHERN MINNESOTA  *****

CITY           SKY/WX    TMP DP  RH WIND       PRES   REMARKS
FLAG ISLAND    PTSUNNY   66  57  72 N3        29.76R
WARROAD        FAIR      66  61  82 NE3       29.79R
ROSEAU         FAIR      66  63  88 CALM      29.79R
HALLOCK        FAIR      66  63  88 CALM      29.79R
THF RVR FALLS  CLOUDY    63  60  90 NW7       29.81S
HALSTAD        NOT AVBL
FOSSTON        FAIR      63  61  94 NW6       29.80F
BAUDETTE       PTSUNNY   69  60  73 NE6       29.75R
WASKISH        FAIR      68  61  77 N5        29.76R
CROOKSTON      CLOUDY    63  61  94 NE3       29.80F
$$
  *****  WEATHER ACROSS CENTRAL AND WEST MINNESOTA  *****

CITY           SKY/WX    TMP DP  RH WIND       PRES   REMARKS
BEMIDJI        PTSUNNY   64  58  79 NW8       29.77R
PARK RAPIDS    FAIR      67  55  65 N10       29.76F
WADENA         PTSUNNY   64  57  77 NW7       29.76F
DETROIT LAKES  CLOUDY    63  59  88 N5        29.79F
MOORHEAD       CLOUDY    64  57  77 N7        29.79F
FERGUS FALLS   CLOUDY    63  57  82 NE9       29.74F
ELBOW LAKE       N/A     62  60  91 NW7       29.77F
MORRIS MN      PTSUNNY   66  59  77 N3        29.78R HAZE
STAPLES        CLOUDY    64  55  72 NW9       29.76F
WHEATON        CLOUDY    63  57  82 NW6       29.82R
$$
  *****  WEATHER ELSEWHERE ACROSS MINNESOTA  *****

CITY           SKY/WX    TMP DP  RH WIND       PRES   REMARKS
DULUTH         CLOUDY    60  59  96 NW9       29.67R
INTRNTL FALLS  CLOUDY    63  57  81 N7        29.74R
ELY            DRIZZLE   57  57 100 N3        29.68R
CLOQUET        CLOUDY    61  55  82 NW8       29.69S FOG
BRAINERD       CLOUDY    63  58  83 NW10      29.75R
HIBBING        CLOUDY    59  58  96 N9        29.70R
ALEXANDRIA     CLOUDY    65  59  81 N9        29.77F
SAINT CLOUD    CLOUDY    64  60  87 NW8       29.75S
MINNEAPOLIS    CLOUDY    67  58  72 W14       29.76R
$$

  *****  WEATHER ACROSS SOUTH DAKOTA  *****

CITY           SKY/WX    TMP DP  RH WIND       PRES   REMARKS
SIOUX FALLS    CLOUDY    69  64  84 NE6       29.80R
BROOKINGS      FAIR      67  59  75 SW5       29.84R
WATERTOWN      FAIR      65  60  84 CALM      29.82R
HURON          FAIR      68  56  65 E5        29.79F
SISSETON         N/A     66  61  84 N5        29.80R
ABERDEEN       FAIR      64  56  75 S5        29.82R
MITCHELL       PTSUNNY   72  60  66 NE9       29.80S
PIERRE         CLOUDY    66  54  65 NE10      29.81S
MOBRIDGE       CLOUDY    66  52  60 CALM      29.83R
RAPID CITY     CLOUDY    63  52  67 NW15      29.90R
$$

  *****  SOME WEATHER IN NEARBY STATES *****

CITY           SKY/WX    TMP DP  RH WIND       PRES   REMARKS
GLASGOW MT     FAIR      66  47  50 NW20G25   29.92R
GREAT FALLS MT CLOUDY    55  48  77 VRB7      30.13R
CHEYENNE WY    FAIR      67  40  37 NE12      30.04R
SCOTTSBLUFF NE FAIR      65  49  56 W9        29.97R
OMAHA NE       CLOUDY    73  62  68 S12       29.72F
DES MOINES IA  CLOUDY    73  65  75 SW18G26   29.81R
DAVENPORT IA   NOT AVBL
CHICAGO IL     CLOUDY    75  62  64 SW17G24   29.78R
EAU CLAIRE WI  CLOUDY    67  61  81 W14       29.71R
LA CROSSE WI   FAIR      75  63  66 W13       29.73R
$$

  *****  SOME NATIONAL WEATHER *****

CITY           SKY/WX    TMP DP  RH WIND       PRES   REMARKS
LA GUARDIA NY  PTSUNNY   79  59  50 SW15G22   30.12S
RALEIGH NC     PTSUNNY   80  63  55 SW10      30.24S
ATLANTA GA     CLOUDY    77  70  79 S8        30.17F
NEW ORLEANS LA CLOUDY    79  75  87 SE9       30.01R
OKLAHOMA CITY  FAIR      82  70  66 S21G31    29.81F
ALBUQUERQUE NM FAIR      77  28  16 S8        30.11R
SALT LAKE CITY FAIR      73  41  31 VRB3      30.03R
LOS ANGELES CA CLOUDY    64  57  78 SE3       29.94R
BOISE ID       FAIR      64  37  36 VRB6      30.04R
SEATTLE WA     PTSUNNY   56  51  84 CALM      30.17R
$$

*** WEATHER ACROSS MANITOBA...SASKATCHEWAN AND ONTARIO ***
                ***ONTARIO***

CITY           SKY/WX    TMP DP  RH WIND       PRES   REMARKS
GERALDTON      PTSUNNY   66  54  63 E14       29.74F
THUNDER BAY    LGT RAIN  61  59  94 NE13G20   29.64R FOG
SIOUX LOOKOUT  CLOUDY    64  52  63 NE8       29.76S
TORONTO        TSTM      64  59  82 S5        29.89S
BIG TROUT LK   NOT AVBL
PICKLE LAKE    CLOUDY    61  52  72 NE12      29.82S
DRYDEN         CLOUDY    61  54  77 NE7       29.75S
KENORA         PTSUNNY   64  59  82 NE6       29.78S
$$
                *** MANITOBA***

CITY           SKY/WX    TMP DP  RH WIND       PRES   REMARKS
BRANDON        MOSUNNY   63  59  88 VRB2      29.80R
DAUPHIN        MOSUNNY   63  57  82 NW5       29.80S
ISLAND LAKE    CLOUDY    57  54  88 SE7       29.81S
PILOT MOUND      N/A     70  55  60 NE2         N/A
THE PAS        CLOUDY    52  48  87 NW10      29.82S
THOMPSON       LGT RAIN  50  48  93 E9        29.82R FOG
WINNIPEG       PTSUNNY   70  63  78 VRB5      29.79R
LYNN LAKE      RAIN      46  45  93 NE8       29.88R FOG
CHURCHILL      PTSUNNY   50  43  76 E13       30.09F
GILLAM         LGT RAIN  50  43  76 E6        29.91S
$$
                ***SASKATCHEWAN***

CITY           SKY/WX    TMP DP  RH WIND       PRES   REMARKS
ESTEVAN        PTSUNNY   68  54  60 S8        29.84R
KINDERSLEY     CLOUDY    48  43  81 N15       30.03R
LLOYDMINSTER   MOSUNNY   54  43  66 N8        30.04R
PRINCE ALBERT  PTSUNNY   50  45  81 NW10      29.96R
REGINA         MOSUNNY   61  54  77 NW13      29.89R
YORKTON        CLOUDY    61  54  77 W6        29.84R



USA.gov is the U.S. government's official web portal to all federal, state and local government web resources and services.